This demonstration page uses our WeatherBlox Daily Observations layout. Learn more.

Left ArrowRight Arrow

44.89941, -97.11507

Hourly Observations for March 24, 2017

Temp ( °F °C ) Dew Point ( °F °C ) Humidity (%) Winds ( mph kmh ) Pressure ( in mb ) Visibility ( mi km ) Precip ( " mm )
12:32 am 00:32 Cloudy with Mist and Fog 34 1.1 34 1.1 100 100 NNE 7 11 29.85 1011 2 3 0.00 0.00
12:43 am 00:43 Cloudy with Mist and Fog 34 1.1 34 1.1 100 100 NE 6 9 29.85 1011 3 5 0.00 0.00
12:53 am 00:53 Cloudy with Mist and Fog 34 1.1 34 1.1 100 100 NNE 5 7 29.85 1011 5 8 0.00 0.00
1:27 am 01:27 Cloudy with Mist and Fog 34 1.1 34 1.1 100 100 NNE 6 9 29.91 1013 3 4 0.00 0.00
1:35 am 01:35 Cloudy with Mist and Fog 34 1.1 34 1.1 100 100 NE 6 9 29.91 1013 1 2 0.00 0.00
1:46 am 01:46 Cloudy with Mist and Fog 34 1.1 34 1.1 100 100 NE 5 7 29.91 1013 1 1 0.00 0.00
1:53 am 01:53 Cloudy with Mist and Fog 34 1.1 33 0.6 97 97 NE 6 9 29.87 1012 1 1 0.00 0.00
2:27 am 02:27 Cloudy with Mist and Fog 34 1.1 33 0.6 97 97 NNE 7 11 29.94 1014 2 2 0.00 0.00
2:32 am 02:32 Cloudy with Mist and Fog 33 0.6 33 0.6 100 100 NNE 7 11 29.94 1014 3 5 0.00 0.00
2:45 am 02:45 Cloudy with Mist and Fog 33 0.6 33 0.6 100 100 NNE 9 15 29.91 1013 2 3 0.00 0.00
2:53 am 02:53 Cloudy with Mist and Fog 33 0.6 33 0.6 100 100 NNE 10 17 29.88 1012 1 2 0.00 0.00
3:11 am 03:11 Mostly Cloudy with Mist and Fog 33 0.6 33 0.6 100 100 N 12 19 29.91 1013 1 1 0.00 0.00
3:24 am 03:24 Cloudy with Mist and Fog 33 0.6 33 0.6 100 100 N 12 19 29.91 1013 1 2 0.00 0.00
3:46 am 03:46 Cloudy with Fog 33 0.6 33 0.6 100 100 N 10 17 29.94 1014 1 1 0.00 0.00
3:53 am 03:53 Cloudy with Fog 33 0.6 33 0.6 100 100 NNE 8 13 29.90 1012 1 1 0.00 0.00
4:12 am 04:12 Cloudy with Mist and Fog 33 0.6 33 0.6 100 100 N 9 15 29.94 1014 2 2 0.00 0.00
4:22 am 04:22 Cloudy with Mist and Fog 33 0.6 33 0.6 100 100 NNE 9 15 29.94 1014 3 4 0.00 0.00
4:53 am 04:53 Cloudy with Mist and Fog 33 0.6 33 0.6 100 100 N 10 17 29.93 1014 2 3 0.00 0.00
5:04 am 05:04 Cloudy with Mist and Fog 33 0.6 33 0.6 100 100 N 12 19 29.97 1015 3 5 0.00 0.00
5:21 am 05:21 Cloudy with Mist and Fog 33 0.6 33 0.6 100 100 N 10 17 29.97 1015 2 3 0.00 0.00
5:34 am 05:34 Cloudy with Mist and Fog 33 0.6 33 0.6 100 100 N 10 17 29.97 1015 2 3 0.00 0.00
5:42 am 05:42 Cloudy with Mist and Fog 33 0.6 33 0.6 100 100 N 12 19 29.97 1015 3 5 0.00 0.00
5:53 am 05:53 Cloudy with Mist and Fog 33 0.6 33 0.6 100 100 N 12 19 29.94 1014 4 6 0.00 0.00
6:53 am 06:53 Cloudy with Mist and Fog 33 0.6 33 0.6 100 100 N 12 19 29.98 1015 4 6 0.00 0.00
7:53 am 07:53 Cloudy with Mist and Fog 35 1.7 33 0.6 93 93 N 14 22 30.01 1016 6 10 0.00 0.00
8:53 am 08:53 Cloudy 36 2.2 34 1.1 93 93 NNE 15 24 30.04 1017 8 13 0.00 0.00
9:15 am 09:15 Cloudy 36 2.2 34 1.1 93 93 NNE 16 26 30.06 1018 8 13 0.00 0.00
9:26 am 09:26 Cloudy 36 2.2 34 1.1 93 93 NNE 15 24 30.09 1019 7 11 0.00 0.00
9:53 am 09:53 Cloudy with Mist and Fog 35 1.7 34 1.1 96 96 NNE 17 28 30.08 1019 5 8 0.00 0.00
10:53 am 10:53 Cloudy with Mist and Fog 36 2.2 34 1.1 93 93 NNE 13 20 30.11 1020 6 10 0.00 0.00
11:53 am 11:53 Cloudy with Mist and Fog 35 1.7 34 1.1 96 96 NNE 16 26 30.13 1020 4 6 0.00 0.00
12:53 pm 12:53 Cloudy with Mist and Fog 35 1.7 34 1.1 96 96 NNE 21 33 30.13 1020 3 4 0.00 0.00
1:12 pm 13:12 Cloudy with Mist and Fog 36 2.2 34 1.1 93 93 NNE 20 31 30.15 1021 4 6 0.00 0.00
1:53 pm 13:53 Cloudy 37 2.8 34 1.1 89 89 N 17 28 30.14 1021 8 13 0.00 0.00
2:53 pm 14:53 Cloudy 37 2.8 33 0.6 86 86 NE 15 24 30.18 1022 10 16 0.00 0.00
3:25 pm 15:25 Cloudy 37 2.8 33 0.6 86 86 NNE 12 19 30.18 1022 10 16 0.00 0.00
3:53 pm 15:53 Cloudy 38 3.3 33 0.6 83 83 NE 13 20 30.18 1022 10 16 0.00 0.00
4:53 pm 16:53 Cloudy 38 3.3 33 0.6 83 83 NE 15 24 30.16 1021 10 16 0.00 0.00
5:25 pm 17:25 Partly Cloudy 39 3.9 33 0.6 79 79 NE 14 22 30.15 1021 10 16 0.00 0.00
5:53 pm 17:53 Mostly Sunny 39 3.9 33 0.6 79 79 NE 13 20 30.16 1021 10 16 0.00 0.00
6:53 pm 18:53 Sunny 39 3.9 34 1.1 82 82 NNE 13 20 30.16 1021 10 16 0.00 0.00
7:53 pm 19:53 Clear 37 2.8 33 0.6 86 86 NE 13 20 30.16 1021 10 16 0.00 0.00
8:53 pm 20:53 Clear 33 0.6 31 -0.6 92 92 ENE 8 13 30.18 1022 10 16 0.00 0.00
9:20 pm 21:20 Mostly Cloudy 34 1.1 31 -0.6 89 89 ENE 5 7 30.21 1023 10 16 0.00 0.00
9:53 pm 21:53 Cloudy 34 1.1 32 0 92 92 E 6 9 30.20 1023 10 16 0.00 0.00
10:21 pm 22:21 Cloudy 35 1.7 32 0 89 89 ENE 9 15 30.21 1023 10 16 0.00 0.00
10:53 pm 22:53 Cloudy 34 1.1 32 0 92 92 NE 8 13 30.22 1023 10 16 0.00 0.00
11:53 pm 23:53 Cloudy 34 1.1 31 -0.6 89 89 NNE 8 13 30.21 1023 10 16 0.00 0.00

Powered by AerisWeather